Dades meteomassalio
Diari Summary for Juny 1, 2017 Units:  Metric    English   Both
« Previous Day
Next Day »
Diari Semanal Mensual Anual Personalitzat
  Maxima: Minima: Mijana:
Temperatura: 31.5 °C 12.4 °C 22.3 °C
Rosada: 16.5 °C 9.3 °C 12.8 °C
Humitat: 86 % 26 % 59 %
Velocitat del vent: 35.2 km/h 0.0 km/h 5.4 km/h
Racha vent: 35.2 km/h - -
Vent:- - SE
Pressio: 1019.5 hPa 1015.1 hPa -
Pluja: 0.0 mm    
Historical Graphs
 
 
Tabular Data for Juny 1, 2017
Time Temperature Dew Point Pressure Wind Wind Speed Wind Gust Humidity Rainfall Rate (Hourly) solar Conditions
00:03 20.3 °C 12.8 °C 1018.2 hPa Calm     62 % 0.0 mm 0.0 W/m2 CLR
00:08 20.2 °C 12.9 °C 1018.2 hPa Calm     63 % 0.0 mm 0.0 W/m2 CLR
00:13 20.1 °C 12.6 °C 1018.2 hPa Calm     62 % 0.0 mm 0.0 W/m2 CLR
00:18 19.9 °C 12.4 °C 1018.2 hPa Calm     62 % 0.0 mm 0.0 W/m2 CLR
00:23 19.7 °C 12.5 °C 1018.2 hPa Calm     63 % 0.0 mm 0.0 W/m2 CLR
00:28 19.6 °C 12.6 °C 1018.5 hPa Calm     64 % 0.0 mm 0.0 W/m2 CLR
00:33 19.6 °C 12.6 °C 1018.2 hPa Calm     64 % 0.0 mm 0.0 W/m2 CLR
00:38 19.5 °C 12.5 °C 1018.5 hPa Calm     64 % 0.0 mm 0.0 W/m2 CLR
00:43 19.3 °C 12.6 °C 1018.5 hPa Calm     65 % 0.0 mm 0.0 W/m2 CLR
00:48 19.2 °C 12.5 °C 1018.5 hPa Calm     65 % 0.0 mm 0.0 W/m2 CLR
00:53 19.2 °C 12.4 °C 1018.5 hPa Calm     65 % 0.0 mm 0.0 W/m2 CLR
00:58 19.0 °C 12.5 °C 1018.5 hPa Calm     66 % 0.0 mm 0.0 W/m2 CLR
01:03 18.8 °C 12.3 °C 1018.5 hPa Calm     66 % 0.0 mm 0.0 W/m2 CLR
01:08 18.6 °C 11.9 °C 1018.5 hPa Calm     65 % 0.0 mm 0.0 W/m2 CLR
01:13 18.6 °C 12.1 °C 1018.5 hPa Calm     66 % 0.0 mm 0.0 W/m2 CLR
01:18 18.4 °C 11.9 °C 1018.5 hPa Calm     66 % 0.0 mm 0.0 W/m2 CLR
01:23 18.3 °C 12.1 °C 1018.5 hPa Calm     67 % 0.0 mm 0.0 W/m2 CLR
01:28 18.2 °C 11.9 °C 1018.5 hPa Calm     67 % 0.0 mm 0.0 W/m2 CLR
01:33 18.1 °C 11.9 °C 1018.5 hPa Calm     67 % 0.0 mm 0.0 W/m2 CLR
01:38 18.0 °C 11.8 °C 1018.5 hPa Calm     67 % 0.0 mm 0.0 W/m2 CLR
01:43 17.8 °C 11.8 °C 1018.5 hPa Calm     68 % 0.0 mm 0.0 W/m2 CLR
01:44 17.8 °C 11.8 °C 1018.8 hPa Calm     68 % 0.0 mm 0.0 W/m2 CLR
01:49 17.6 °C 11.8 °C 1018.5 hPa Calm     69 % 0.0 mm 0.0 W/m2 CLR
01:54 17.3 °C 11.6 °C 1018.5 hPa Calm     69 % 0.0 mm 0.0 W/m2 CLR
01:59 17.1 °C 11.6 °C 1018.5 hPa Calm     70 % 0.0 mm 0.0 W/m2 CLR
02:04 16.9 °C 11.6 °C 1018.5 hPa Calm     71 % 0.0 mm 0.0 W/m2 CLR
02:09 16.7 °C 11.7 °C 1018.5 hPa Calm     72 % 0.0 mm 0.0 W/m2 CLR
02:14 16.6 °C 11.7 °C 1018.5 hPa Calm     73 % 0.0 mm 0.0 W/m2 CLR
02:19 16.4 °C 11.8 °C 1018.5 hPa Calm     74 % 0.0 mm 0.0 W/m2 CLR
02:24 16.2 °C 11.8 °C 1018.5 hPa Calm     75 % 0.0 mm 0.0 W/m2 CLR
02:29 16.1 °C 11.7 °C 1018.5 hPa Calm     75 % 0.0 mm 0.0 W/m2 CLR
02:34 16.0 °C 11.6 °C 1018.5 hPa Calm     75 % 0.0 mm 0.0 W/m2 CLR
02:39 15.9 °C 11.4 °C 1018.5 hPa Calm     75 % 0.0 mm 0.0 W/m2 CLR
02:44 15.8 °C 11.2 °C 1018.5 hPa Calm     74 % 0.0 mm 0.0 W/m2 CLR
02:49 15.6 °C 11.2 °C 1018.5 hPa Calm     75 % 0.0 mm 0.0 W/m2 CLR
02:54 15.4 °C 11.2 °C 1018.5 hPa Calm     76 % 0.0 mm 0.0 W/m2 CLR
02:59 15.4 °C 11.2 °C 1018.5 hPa Calm     76 % 0.0 mm 0.0 W/m2 CLR
03:04 15.3 °C 11.3 °C 1018.5 hPa Calm     77 % 0.0 mm 0.0 W/m2 CLR
03:09 15.2 °C 11.2 °C 1018.5 hPa Calm     77 % 0.0 mm 0.0 W/m2 CLR
03:14 15.2 °C 11.3 °C 1018.5 hPa Calm     78 % 0.0 mm 0.0 W/m2 CLR
03:19 15.2 °C 11.3 °C 1018.2 hPa Calm     78 % 0.0 mm 0.0 W/m2 CLR
03:24 15.1 °C 11.3 °C 1018.2 hPa Calm     78 % 0.0 mm 0.0 W/m2 CLR
03:29 15.0 °C 11.0 °C 1018.5 hPa Calm     77 % 0.0 mm 0.0 W/m2 CLR
03:34 14.8 °C 10.8 °C 1018.5 hPa Calm     77 % 0.0 mm 0.0 W/m2 CLR
03:39 14.7 °C 10.9 °C 1018.5 hPa Calm     78 % 0.0 mm 0.0 W/m2 CLR
03:44 14.5 °C 10.9 °C 1018.5 hPa Calm     79 % 0.0 mm 0.0 W/m2 CLR
03:49 14.4 °C 10.8 °C 1018.5 hPa Calm     79 % 0.0 mm 0.0 W/m2 CLR
03:54 14.3 °C 10.7 °C 1018.5 hPa Calm     79 % 0.0 mm 0.0 W/m2 CLR
03:59 14.2 °C 10.6 °C 1018.2 hPa Calm     79 % 0.0 mm 0.0 W/m2 CLR
04:04 14.2 °C 10.8 °C 1018.2 hPa Calm     80 % 0.0 mm 0.0 W/m2 CLR
04:09 14.2 °C 11.0 °C 1018.2 hPa Calm     81 % 0.0 mm 0.0 W/m2 CLR
04:14 14.3 °C 11.1 °C 1018.2 hPa Calm     81 % 0.0 mm 0.0 W/m2 CLR
04:19 14.2 °C 10.8 °C 1018.2 hPa Calm     80 % 0.0 mm 0.0 W/m2 CLR
04:24 14.1 °C 10.7 °C 1018.2 hPa Calm     80 % 0.0 mm 0.0 W/m2 CLR
04:29 14.0 °C 10.6 °C 1018.2 hPa Calm     80 % 0.0 mm 0.0 W/m2 CLR
04:34 13.9 °C 10.5 °C 1018.2 hPa Calm     80 % 0.0 mm 0.0 W/m2 CLR
04:39 13.8 °C 10.6 °C 1018.2 hPa Calm     81 % 0.0 mm 0.0 W/m2 CLR
04:44 13.8 °C 10.6 °C 1018.2 hPa Calm     81 % 0.0 mm 0.0 W/m2 CLR
04:49 13.6 °C 10.2 °C 1018.2 hPa Calm     80 % 0.0 mm 0.0 W/m2 CLR
04:54 13.6 °C 10.3 °C 1018.2 hPa Calm     81 % 0.0 mm 0.0 W/m2 CLR
04:59 13.5 °C 10.5 °C 1018.2 hPa Calm     82 % 0.0 mm 0.0 W/m2 CLR
05:04 13.4 °C 10.4 °C 1018.2 hPa Calm     82 % 0.0 mm 0.0 W/m2 CLR
05:09 13.4 °C 10.4 °C 1018.2 hPa Calm     82 % 0.0 mm 0.0 W/m2 CLR
05:14 13.3 °C 10.3 °C 1018.2 hPa Calm     82 % 0.0 mm 0.0 W/m2 CLR
05:19 13.1 °C 10.1 °C 1018.2 hPa Calm     82 % 0.0 mm 0.0 W/m2 CLR
05:24 13.1 °C 10.2 °C 1018.2 hPa Calm     83 % 0.0 mm 0.0 W/m2 CLR
05:29 12.9 °C 10.1 °C 1018.2 hPa Calm     83 % 0.0 mm 0.0 W/m2 CLR
05:34 12.9 °C 10.1 °C 1018.2 hPa Calm     83 % 0.0 mm 0.0 W/m2 CLR
05:39 12.8 °C 10.0 °C 1018.2 hPa Calm     83 % 0.0 mm 0.0 W/m2 CLR
05:44 12.7 °C 10.1 °C 1018.2 hPa Calm     84 % 0.0 mm 0.0 W/m2 CLR
05:49 12.7 °C 10.1 °C 1018.2 hPa Calm     84 % 0.0 mm 0.0 W/m2 CLR
05:54 12.7 °C 10.3 °C 1018.2 hPa Calm     85 % 0.0 mm 0.0 W/m2 CLR
05:59 12.7 °C 10.3 °C 1018.2 hPa Calm     85 % 0.0 mm 0.0 W/m2 CLR
06:04 12.6 °C 10.0 °C 1018.2 hPa Calm     84 % 0.0 mm 0.0 W/m2 CLR
06:09 12.6 °C 10.0 °C 1018.2 hPa Calm     84 % 0.0 mm 0.0 W/m2 CLR
06:14 12.5 °C 9.9 °C 1018.2 hPa Calm     84 % 0.0 mm 0.0 W/m2 CLR
06:19 12.4 °C 10.0 °C 1018.5 hPa Calm     85 % 0.0 mm 0.0 W/m2 OVC
06:24 12.4 °C 10.0 °C 1018.5 hPa Calm     85 % 0.0 mm 0.0 W/m2 OVC
06:29 12.4 °C 9.9 °C 1018.5 hPa Calm     85 % 0.0 mm 0.0 W/m2 OVC
06:34 12.4 °C 10.2 °C 1018.5 hPa Calm     86 % 0.0 mm 5.0 W/m2 OVC
06:39 12.5 °C 10.1 °C 1018.5 hPa Calm     85 % 0.0 mm 7.0 W/m2 BKN
06:44 12.5 °C 10.2 °C 1018.5 hPa Calm     86 % 0.0 mm 11.0 W/m2 BKN
06:49 12.6 °C 10.3 °C 1018.5 hPa Calm     86 % 0.0 mm 14.0 W/m2 BKN
06:54 12.6 °C 10.3 °C 1018.5 hPa Calm     86 % 0.0 mm 16.0 W/m2 BKN
06:59 12.7 °C 10.2 °C 1018.8 hPa Calm     85 % 0.0 mm 19.0 W/m2 BKN
07:04 12.6 °C 10.2 °C 1018.8 hPa Calm     85 % 0.0 mm 25.0 W/m2 BKN
07:09 12.7 °C 10.2 °C 1018.8 hPa Calm     85 % 0.0 mm 32.0 W/m2 BKN
07:14 12.8 °C 10.3 °C 1018.8 hPa Calm     85 % 0.0 mm 44.0 W/m2 BKN
07:19 12.9 °C 10.4 °C 1018.8 hPa Calm     85 % 0.0 mm 54.0 W/m2 SCT
07:24 13.1 °C 10.7 °C 1019.2 hPa Calm     85 % 0.0 mm 65.0 W/m2 SCT
07:29 13.4 °C 10.7 °C 1019.2 hPa Calm     84 % 0.0 mm 76.0 W/m2 FEW
07:34 13.7 °C 10.8 °C 1019.2 hPa Calm     83 % 0.0 mm 91.0 W/m2 FEW
07:40 13.9 °C 11.1 °C 1019.2 hPa Calm     83 % 0.0 mm 100.0 W/m2 CLR
07:45 14.2 °C 11.2 °C 1019.2 hPa Calm     82 % 0.0 mm 118.0 W/m2 CLR
07:50 14.6 °C 11.4 °C 1019.2 hPa Calm     81 % 0.0 mm 134.0 W/m2 CLR
07:55 14.9 °C 11.3 °C 1019.2 hPa Calm     79 % 0.0 mm 153.0 W/m2 CLR
08:00 15.2 °C 11.4 °C 1019.5 hPa Calm     78 % 0.0 mm 169.0 W/m2 CLR
08:05 15.3 °C 11.5 °C 1019.2 hPa Calm     78 % 0.0 mm 185.0 W/m2 CLR
08:10 15.6 °C 11.6 °C 1019.5 hPa Calm     77 % 0.0 mm 200.0 W/m2 CLR
08:15 15.8 °C 11.8 °C 1019.2 hPa Calm     77 % 0.0 mm 220.0 W/m2 CLR
08:20 16.1 °C 12.1 °C 1019.2 hPa Calm     77 % 0.0 mm 236.0 W/m2 CLR
08:25 16.4 °C 12.2 °C 1019.2 hPa Calm     76 % 0.0 mm 251.0 W/m2 CLR
08:30 16.9 °C 12.4 °C 1019.2 hPa Calm     75 % 0.0 mm 265.0 W/m2 CLR
08:35 17.4 °C 12.5 °C 1019.2 hPa Calm     73 % 0.0 mm 279.0 W/m2 CLR
08:40 17.9 °C 12.8 °C 1019.2 hPa Calm     72 % 0.0 mm 299.0 W/m2 CLR
08:45 18.3 °C 13.0 °C 1019.2 hPa Calm     71 % 0.0 mm 311.0 W/m2 CLR
08:50 18.8 °C 13.0 °C 1019.2 hPa Calm     69 % 0.0 mm 329.0 W/m2 CLR
08:55 19.3 °C 13.3 °C 1019.2 hPa Calm     68 % 0.0 mm 343.0 W/m2 CLR
08:56 19.4 °C 13.3 °C 1019.2 hPa Calm     68 % 0.0 mm 346.0 W/m2 CLR
09:01 19.7 °C 13.4 °C 1019.2 hPa Calm     67 % 0.0 mm 364.0 W/m2 CLR
09:06 20.0 °C 13.7 °C 1019.2 hPa Calm     67 % 0.0 mm 380.0 W/m2 CLR
09:11 20.3 °C 13.7 °C 1019.2 hPa Calm     66 % 0.0 mm 394.0 W/m2 CLR
09:16 20.7 °C 13.7 °C 1019.2 hPa Calm     64 % 0.0 mm 410.0 W/m2 CLR
09:21 21.1 °C 13.7 °C 1019.2 hPa Calm     63 % 0.0 mm 425.0 W/m2 CLR
09:26 21.3 °C 13.8 °C 1019.2 hPa Calm     62 % 0.0 mm 439.0 W/m2 CLR
09:31 21.6 °C 13.9 °C 1019.2 hPa Calm     62 % 0.0 mm 455.0 W/m2 CLR
09:36 21.7 °C 13.9 °C 1019.2 hPa Calm     61 % 0.0 mm 471.0 W/m2 CLR
09:41 21.9 °C 14.0 °C 1019.2 hPa Calm     61 % 0.0 mm 485.0 W/m2 CLR
09:46 21.9 °C 14.1 °C 1019.2 hPa Calm     61 % 0.0 mm 501.0 W/m2 CLR
09:51 22.2 °C 14.1 °C 1019.2 hPa Calm     60 % 0.0 mm 515.0 W/m2 CLR
09:56 22.5 °C 14.3 °C 1019.2 hPa Calm     60 % 0.0 mm 531.0 W/m2 CLR
10:01 22.7 °C 14.3 °C 1019.2 hPa Calm     59 % 0.0 mm 543.0 W/m2 CLR
10:06 22.8 °C 14.1 °C 1019.2 hPa ENE 5.6 km/h 5.6 km/h 58 % 0.0 mm 557.0 W/m2 CLR
10:11 22.9 °C 14.2 °C 1019.2 hPa ENE 5.6 km/h 5.6 km/h 58 % 0.0 mm 571.0 W/m2 CLR
10:16 23.2 °C 14.4 °C 1018.8 hPa ENE 5.6 km/h 5.6 km/h 58 % 0.0 mm 585.0 W/m2 CLR
10:21 23.3 °C 14.1 °C 1018.8 hPa ENE 3.7 km/h 3.7 km/h 56 % 0.0 mm 598.0 W/m2 CLR
10:26 23.4 °C 14.4 °C 1018.8 hPa ENE 7.4 km/h 7.4 km/h 57 % 0.0 mm 615.0 W/m2 CLR
10:31 23.6 °C 14.3 °C 1018.8 hPa ENE 5.6 km/h   56 % 0.0 mm 629.0 W/m2 CLR
10:36 23.7 °C 14.4 °C 1018.8 hPa Calm     56 % 0.0 mm 642.0 W/m2 CLR
10:41 24.1 °C 14.5 °C 1018.8 hPa Calm     55 % 0.0 mm 652.0 W/m2 CLR
10:46 24.2 °C 14.3 °C 1018.8 hPa Calm     54 % 0.0 mm 664.0 W/m2 CLR
10:51 24.3 °C 14.4 °C 1018.5 hPa ESE 3.7 km/h   54 % 0.0 mm 682.0 W/m2 CLR
10:56 24.4 °C 14.8 °C 1018.5 hPa ENE 4.8 km/h 4.8 km/h 55 % 0.0 mm 693.0 W/m2 CLR
11:01 24.8 °C 14.9 °C 1018.5 hPa ENE 9.3 km/h 9.3 km/h 54 % 0.0 mm 705.0 W/m2 CLR
11:06 24.9 °C 14.7 °C 1018.8 hPa ENE 5.6 km/h 5.6 km/h 53 % 0.0 mm 719.0 W/m2 CLR
11:11 24.9 °C 14.7 °C 1018.5 hPa NNE 1.9 km/h 1.9 km/h 53 % 0.0 mm 722.0 W/m2 CLR
11:16 24.9 °C 14.7 °C 1018.5 hPa Calm     53 % 0.0 mm 768.0 W/m2 CLR
11:21 25.0 °C 14.4 °C 1018.5 hPa Calm     52 % 0.0 mm 765.0 W/m2 CLR
11:26 25.1 °C 14.5 °C 1018.5 hPa Calm     52 % 0.0 mm 777.0 W/m2 CLR
11:31 25.3 °C 14.4 °C 1018.5 hPa Calm     51 % 0.0 mm 680.0 W/m2 CLR
11:36 25.4 °C 14.2 °C 1018.5 hPa Calm     50 % 0.0 mm 780.0 W/m2 CLR
11:41 25.8 °C 14.3 °C 1018.5 hPa Calm     49 % 0.0 mm 795.0 W/m2 CLR
11:46 26.3 °C 14.4 °C 1018.5 hPa ESE 3.7 km/h 3.7 km/h 48 % 0.0 mm 802.0 W/m2 CLR
11:51 26.6 °C 14.4 °C 1018.5 hPa ENE 5.6 km/h 5.6 km/h 47 % 0.0 mm 812.0 W/m2 CLR
11:56 26.6 °C 14.3 °C 1018.5 hPa ENE 7.4 km/h 7.4 km/h 47 % 0.0 mm 821.0 W/m2 CLR
12:01 26.7 °C 14.4 °C 1018.5 hPa Calm     47 % 0.0 mm 830.0 W/m2 CLR
12:06 26.8 °C 13.9 °C 1018.5 hPa Calm     45 % 0.0 mm 842.0 W/m2 CLR
12:11 26.6 °C 13.7 °C 1018.5 hPa Calm     45 % 0.0 mm 844.0 W/m2 CLR
12:16 26.9 °C 13.3 °C 1018.2 hPa ESE 5.6 km/h 5.6 km/h 43 % 0.0 mm 858.0 W/m2 CLR
12:21 26.8 °C 13.2 °C 1018.2 hPa Calm     43 % 0.0 mm 861.0 W/m2 CLR
12:26 26.9 °C 13.3 °C 1018.2 hPa Calm     43 % 0.0 mm 868.0 W/m2 CLR
12:31 27.1 °C 13.1 °C 1018.2 hPa South 7.4 km/h 7.4 km/h 42 % 0.0 mm 877.0 W/m2 CLR
12:37 27.1 °C 13.1 °C 1018.2 hPa Calm     42 % 0.0 mm 877.0 W/m2 CLR
12:41 27.4 °C 13.8 °C 1018.2 hPa East 8.0 km/h 8.0 km/h 43 % 0.0 mm 888.0 W/m2 CLR
12:46 27.8 °C 13.7 °C 1018.2 hPa ENE 5.6 km/h 5.6 km/h 42 % 0.0 mm 898.0 W/m2 CLR
12:57 28.1 °C 13.2 °C 1017.8 hPa Calm     40 % 0.0 mm 907.0 W/m2 CLR
13:02 28.2 °C 13.7 °C 1017.8 hPa Calm     41 % 0.0 mm 914.0 W/m2 CLR
13:07 28.5 °C 13.9 °C 1017.8 hPa WNW 8.0 km/h 8.0 km/h 41 % 0.0 mm 914.0 W/m2 CLR
13:12 28.8 °C 13.8 °C 1017.8 hPa NNW 1.6 km/h   40 % 0.0 mm 921.0 W/m2 CLR
13:17 28.8 °C 13.5 °C 1017.8 hPa NNE 5.6 km/h 5.6 km/h 39 % 0.0 mm 930.0 W/m2 CLR
13:22 28.5 °C 13.6 °C 1017.8 hPa NNE 9.7 km/h 9.7 km/h 40 % 0.0 mm 930.0 W/m2 CLR
13:27 28.3 °C 13.4 °C 1017.5 hPa NNE 5.6 km/h   40 % 0.0 mm 921.0 W/m2 CLR
13:32 28.5 °C 13.6 °C 1017.5 hPa Calm     40 % 0.0 mm 933.0 W/m2 CLR
13:37 28.9 °C 13.6 °C 1017.5 hPa NNE 11.1 km/h 11.1 km/h 39 % 0.0 mm 933.0 W/m2 CLR
13:42 29.3 °C 13.1 °C 1017.5 hPa SSE 7.4 km/h 7.4 km/h 37 % 0.0 mm 940.0 W/m2 CLR
13:47 29.3 °C 11.8 °C 1017.5 hPa ENE 9.3 km/h 9.3 km/h 34 % 0.0 mm 967.0 W/m2 CLR
13:52 29.2 °C 10.3 °C 1017.5 hPa Calm     31 % 0.0 mm 898.0 W/m2 CLR
13:57 29.2 °C 9.3 °C 1017.2 hPa NE 11.1 km/h 11.1 km/h 29 % 0.0 mm 898.0 W/m2 CLR
14:02 29.2 °C 11.2 °C 1017.2 hPa Calm     33 % 0.0 mm 1000.0 W/m2 CLR
14:07 29.3 °C 10.9 °C 1017.2 hPa Calm     32 % 0.0 mm 1011.0 W/m2 CLR
14:12 29.4 °C 11.4 °C 1017.2 hPa NE 14.8 km/h 14.8 km/h 33 % 0.0 mm 1018.0 W/m2 CLR
14:17 29.7 °C 11.3 °C 1016.8 hPa NNE 16.7 km/h 16.7 km/h 32 % 0.0 mm 1025.0 W/m2 CLR
14:22 29.8 °C 11.3 °C 1016.8 hPa NNE 16.7 km/h 16.7 km/h 32 % 0.0 mm 970.0 W/m2 CLR
14:27 29.8 °C 11.3 °C 1016.8 hPa NNE 9.3 km/h 9.3 km/h 32 % 0.0 mm 981.0 W/m2 CLR
14:32 29.8 °C 11.3 °C 1016.8 hPa Calm     32 % 0.0 mm 937.0 W/m2 CLR
14:37 30.0 °C 11.5 °C 1016.8 hPa ENE 13.0 km/h 13.0 km/h 32 % 0.0 mm 951.0 W/m2 CLR
14:42 30.2 °C 11.2 °C 1016.8 hPa NE 20.9 km/h 20.9 km/h 31 % 0.0 mm 942.0 W/m2 CLR
14:47 29.7 °C 10.7 °C 1016.8 hPa Calm     31 % 0.0 mm 664.0 W/m2 CLR
14:52 29.7 °C 10.8 °C 1016.8 hPa ENE 5.6 km/h 5.6 km/h 31 % 0.0 mm 904.0 W/m2 CLR
14:57 29.9 °C 10.5 °C 1016.5 hPa ESE 1.9 km/h 1.9 km/h 30 % 0.0 mm 1005.0 W/m2 CLR
15:02 30.0 °C 10.6 °C 1016.5 hPa East 7.4 km/h 7.4 km/h 30 % 0.0 mm 1005.0 W/m2 CLR
15:07 30.2 °C 10.7 °C 1016.5 hPa East 7.4 km/h 7.4 km/h 30 % 0.0 mm 710.0 W/m2 CLR
15:12 30.2 °C 10.7 °C 1016.5 hPa ENE 14.8 km/h 14.8 km/h 30 % 0.0 mm 710.0 W/m2 CLR
15:17 29.8 °C 10.3 °C 1016.5 hPa Calm     30 % 0.0 mm 926.0 W/m2 CLR
15:22 30.2 °C 10.7 °C 1016.1 hPa NE 7.4 km/h 7.4 km/h 30 % 0.0 mm 926.0 W/m2 CLR
15:27 30.7 °C 10.7 °C 1016.1 hPa East 8.0 km/h 8.0 km/h 29 % 0.0 mm 902.0 W/m2 CLR
15:32 30.7 °C 10.6 °C 1016.1 hPa NE 11.1 km/h 11.1 km/h 29 % 0.0 mm 898.0 W/m2 CLR
15:37 30.9 °C 10.3 °C 1016.1 hPa ENE 14.8 km/h 14.8 km/h 28 % 0.0 mm 912.0 W/m2 CLR
15:42 31.1 °C 9.8 °C 1016.1 hPa ENE 18.5 km/h 18.5 km/h 27 % 0.0 mm 889.0 W/m2 CLR
15:47 30.9 °C 10.3 °C 1016.1 hPa East 11.1 km/h 11.1 km/h 28 % 0.0 mm 884.0 W/m2 CLR
15:52 31.2 °C 10.6 °C 1016.1 hPa Calm     28 % 0.0 mm 870.0 W/m2 CLR
15:57 31.5 °C 9.7 °C 1016.1 hPa East 5.6 km/h 5.6 km/h 26 % 0.0 mm 854.0 W/m2 CLR
16:02 31.0 °C 9.8 °C 1015.8 hPa ESE 9.3 km/h 9.3 km/h 27 % 0.0 mm 844.0 W/m2 CLR
16:07 31.2 °C 10.0 °C 1015.8 hPa ENE 7.4 km/h 7.4 km/h 27 % 0.0 mm 846.0 W/m2 CLR
16:12 31.3 °C 11.2 °C 1015.8 hPa NNW 13.0 km/h 13.0 km/h 29 % 0.0 mm 844.0 W/m2 CLR
16:17 31.4 °C 12.2 °C 1015.5 hPa ENE 11.1 km/h 11.1 km/h 31 % 0.0 mm 837.0 W/m2 CLR
16:22 31.3 °C 12.1 °C 1015.5 hPa ENE 5.6 km/h 5.6 km/h 31 % 0.0 mm 831.0 W/m2 CLR
16:27 30.8 °C 13.1 °C 1015.5 hPa SE 22.2 km/h 22.2 km/h 34 % 0.0 mm 861.0 W/m2 CLR
16:32 30.1 °C 12.9 °C 1015.5 hPa SSE 7.4 km/h 7.4 km/h 35 % 0.0 mm 872.0 W/m2 CLR
16:37 30.1 °C 12.9 °C 1015.5 hPa Calm     35 % 0.0 mm 877.0 W/m2 CLR
16:42 30.2 °C 13.9 °C 1015.5 hPa ESE 24.1 km/h 24.1 km/h 37 % 0.0 mm 241.0 W/m2 CLR
16:47 29.9 °C 13.2 °C 1015.5 hPa ESE 18.5 km/h 18.5 km/h 36 % 0.0 mm 281.0 W/m2 CLR
16:52 29.1 °C 13.3 °C 1015.5 hPa SE 20.4 km/h 20.4 km/h 38 % 0.0 mm 236.0 W/m2 CLR
16:57 29.1 °C 13.7 °C 1015.5 hPa South 24.1 km/h 24.1 km/h 39 % 0.0 mm 853.0 W/m2 CLR
17:02 29.1 °C 13.7 °C 1015.5 hPa South 18.5 km/h 18.5 km/h 39 % 0.0 mm 861.0 W/m2 CLR
17:07 29.4 °C 13.6 °C 1015.5 hPa SSE 27.8 km/h 27.8 km/h 38 % 0.0 mm 802.0 W/m2 CLR
17:12 29.4 °C 14.0 °C 1015.5 hPa ESE 19.3 km/h 19.3 km/h 39 % 0.0 mm 773.0 W/m2 CLR
17:17 29.4 °C 13.6 °C 1015.1 hPa SSE 18.5 km/h 18.5 km/h 38 % 0.0 mm 742.0 W/m2 CLR
17:22 29.2 °C 13.8 °C 1015.1 hPa SE 24.1 km/h 24.1 km/h 39 % 0.0 mm 744.0 W/m2 CLR
17:27 29.1 °C 13.7 °C 1015.1 hPa SE 18.5 km/h 18.5 km/h 39 % 0.0 mm 503.0 W/m2 CLR
17:32 29.1 °C 14.5 °C 1015.1 hPa SW 18.5 km/h 18.5 km/h 41 % 0.0 mm 738.0 W/m2 CLR
17:37 28.8 °C 14.3 °C 1015.1 hPa South 18.5 km/h 18.5 km/h 41 % 0.0 mm 178.0 W/m2 CLR
17:42 28.7 °C 14.1 °C 1015.1 hPa South 31.5 km/h 31.5 km/h 41 % 0.0 mm 636.0 W/m2 CLR
17:47 28.9 °C 14.4 °C 1015.1 hPa South 24.1 km/h 24.1 km/h 41 % 0.0 mm 691.0 W/m2 CLR
17:52 28.9 °C 14.3 °C 1015.5 hPa South 24.1 km/h 24.1 km/h 41 % 0.0 mm 608.0 W/m2 CLR
17:57 28.7 °C 14.2 °C 1015.5 hPa South 18.5 km/h 18.5 km/h 41 % 0.0 mm 628.0 W/m2 CLR
18:02 28.7 °C 14.1 °C 1015.5 hPa South 29.6 km/h 29.6 km/h 41 % 0.0 mm 599.0 W/m2 CLR
18:07 28.5 °C 13.9 °C 1015.5 hPa SSW 17.7 km/h 17.7 km/h 41 % 0.0 mm 612.0 W/m2 CLR
18:12 28.7 °C 14.1 °C 1015.5 hPa South 18.5 km/h 18.5 km/h 41 % 0.0 mm 596.0 W/m2 CLR
18:17 28.9 °C 14.4 °C 1015.5 hPa SSE 14.8 km/h 14.8 km/h 41 % 0.0 mm 501.0 W/m2 CLR
18:22 29.3 °C 13.9 °C 1015.5 hPa SSW 11.1 km/h 11.1 km/h 39 % 0.0 mm 455.0 W/m2 CLR
18:27 29.2 °C 13.8 °C 1015.1 hPa SSW 14.8 km/h 14.8 km/h 39 % 0.0 mm 436.0 W/m2 CLR
18:32 29.1 °C 13.7 °C 1015.1 hPa South 20.4 km/h 20.4 km/h 39 % 0.0 mm 424.0 W/m2 CLR
18:37 29.0 °C 13.7 °C 1015.1 hPa South 11.3 km/h 11.3 km/h 39 % 0.0 mm 392.0 W/m2 CLR
18:42 28.9 °C 13.9 °C 1015.5 hPa South 16.7 km/h 16.7 km/h 40 % 0.0 mm 438.0 W/m2 CLR
18:47 28.8 °C 13.4 °C 1015.1 hPa South 13.0 km/h 13.0 km/h 39 % 0.0 mm 432.0 W/m2 CLR
18:52 28.8 °C 13.4 °C 1015.5 hPa SSE 16.1 km/h 16.1 km/h 39 % 0.0 mm 341.0 W/m2 CLR
18:57 28.7 °C 13.4 °C 1015.5 hPa South 16.7 km/h 16.7 km/h 39 % 0.0 mm 130.0 W/m2 CLR
19:02 28.7 °C 13.0 °C 1015.5 hPa Calm     38 % 0.0 mm 135.0 W/m2 CLR
19:07 28.7 °C 13.4 °C 1015.5 hPa SSE 11.3 km/h 11.3 km/h 39 % 0.0 mm 120.0 W/m2 CLR
19:12 28.7 °C 13.4 °C 1015.5 hPa SE 7.4 km/h 7.4 km/h 39 % 0.0 mm 128.0 W/m2 CLR
19:17 28.6 °C 14.0 °C 1015.1 hPa ESE 12.9 km/h 12.9 km/h 41 % 0.0 mm 121.0 W/m2 CLR
19:22 28.4 °C 13.6 °C 1015.1 hPa ESE 14.8 km/h 14.8 km/h 40 % 0.0 mm 107.0 W/m2 CLR
19:27 28.3 °C 13.4 °C 1015.5 hPa ESE 16.7 km/h 16.7 km/h 40 % 0.0 mm 107.0 W/m2 CLR
19:32 28.2 °C 14.1 °C 1015.5 hPa East 14.8 km/h 14.8 km/h 42 % 0.0 mm 83.0 W/m2 CLR
19:37 28.0 °C 13.9 °C 1015.5 hPa East 14.8 km/h 14.8 km/h 42 % 0.0 mm 47.0 W/m2 FEW
19:42 27.8 °C 13.7 °C 1015.5 hPa SE 16.7 km/h 16.7 km/h 42 % 0.0 mm 47.0 W/m2 SCT
19:47 27.8 °C 13.7 °C 1015.5 hPa ESE 11.1 km/h 11.1 km/h 42 % 0.0 mm 44.0 W/m2 SCT
19:53 27.7 °C 14.0 °C 1015.5 hPa SE 16.7 km/h 16.7 km/h 43 % 0.0 mm 58.0 W/m2 SCT
19:58 27.5 °C 13.8 °C 1015.8 hPa South 18.5 km/h 18.5 km/h 43 % 0.0 mm 79.0 W/m2 SCT
20:03 27.3 °C 13.9 °C 1015.8 hPa SE 20.9 km/h 20.9 km/h 44 % 0.0 mm 74.0 W/m2 FEW
20:08 27.1 °C 14.2 °C 1015.5 hPa SSE 16.7 km/h 16.7 km/h 45 % 0.0 mm 53.0 W/m2 FEW
20:13 26.9 °C 14.3 °C 1015.8 hPa ESE 11.3 km/h 11.3 km/h 46 % 0.0 mm 40.0 W/m2 SCT
20:18 26.8 °C 14.2 °C 1015.8 hPa SE 11.1 km/h 11.1 km/h 46 % 0.0 mm 30.0 W/m2 BKN
20:23 26.8 °C 14.5 °C 1015.8 hPa South 7.4 km/h 7.4 km/h 47 % 0.0 mm 23.0 W/m2 BKN
20:28 26.8 °C 14.5 °C 1016.1 hPa SSW 11.3 km/h 11.3 km/h 47 % 0.0 mm 19.0 W/m2 BKN
20:33 26.6 °C 14.7 °C 1016.1 hPa SW 14.8 km/h 14.8 km/h 48 % 0.0 mm 12.0 W/m2 BKN
20:38 26.3 °C 14.8 °C 1016.5 hPa SSW 24.1 km/h 24.1 km/h 49 % 0.0 mm 11.0 W/m2 BKN
20:43 25.4 °C 15.7 °C 1016.8 hPa West 35.2 km/h 35.2 km/h 55 % 0.0 mm 12.0 W/m2 BKN
20:48 24.2 °C 16.5 °C 1016.8 hPa WSW 22.2 km/h 22.2 km/h 62 % 0.0 mm 25.0 W/m2 BKN
20:53 23.6 °C 16.3 °C 1016.5 hPa SW 18.5 km/h 18.5 km/h 64 % 0.0 mm 42.0 W/m2 BKN
20:58 23.3 °C 16.1 °C 1016.5 hPa WSW 11.1 km/h 11.1 km/h 64 % 0.0 mm 33.0 W/m2 BKN
21:03 23.3 °C 16.1 °C 1016.5 hPa WSW 9.3 km/h 9.3 km/h 64 % 0.0 mm 25.0 W/m2 BKN
21:08 23.2 °C 16.0 °C 1016.5 hPa West 11.1 km/h 11.1 km/h 64 % 0.0 mm 16.0 W/m2 BKN
21:13 23.0 °C 16.1 °C 1016.5 hPa WSW 9.3 km/h 9.3 km/h 65 % 0.0 mm 11.0 W/m2 BKN
21:18 22.9 °C 16.0 °C 1016.5 hPa West 9.3 km/h 9.5 km/h 65 % 0.0 mm 5.0 W/m2 BKN
21:23 23.1 °C 15.9 °C 1016.5 hPa WSW 7.4 km/h 7.4 km/h 64 % 0.0 mm 0.0 W/m2 OVC
21:28 23.1 °C 15.9 °C 1016.5 hPa WSW 5.6 km/h   64 % 0.0 mm 0.0 W/m2 OVC
21:33 23.2 °C 15.8 °C 1016.5 hPa Calm     63 % 0.0 mm 0.0 W/m2 OVC
21:38 23.3 °C 15.6 °C 1016.5 hPa Calm     62 % 0.0 mm 0.0 W/m2 CLR
21:43 23.5 °C 15.8 °C 1016.5 hPa South 16.7 km/h 16.7 km/h 62 % 0.0 mm 0.0 W/m2 CLR
21:48 23.2 °C 15.8 °C 1016.1 hPa South 18.5 km/h 18.5 km/h 63 % 0.0 mm 0.0 W/m2 CLR
21:53 23.1 °C 15.7 °C 1016.1 hPa SE 11.3 km/h 11.3 km/h 63 % 0.0 mm 0.0 W/m2 CLR
21:58 23.0 °C 15.6 °C 1016.1 hPa SSE 14.8 km/h 14.8 km/h 63 % 0.0 mm 0.0 W/m2 CLR
22:03 23.0 °C 15.8 °C 1016.5 hPa South 18.5 km/h 18.5 km/h 64 % 0.0 mm 0.0 W/m2 CLR
22:08 22.7 °C 16.1 °C 1016.5 hPa South 18.5 km/h 18.5 km/h 66 % 0.0 mm 0.0 W/m2 CLR
22:13 22.4 °C 16.0 °C 1016.5 hPa SSE 13.0 km/h 13.0 km/h 67 % 0.0 mm 0.0 W/m2 CLR
22:18 22.3 °C 15.9 °C 1016.5 hPa South 9.3 km/h 9.3 km/h 67 % 0.0 mm 0.0 W/m2 CLR
22:23 22.3 °C 15.4 °C 1016.5 hPa Calm     65 % 0.0 mm 0.0 W/m2 CLR
22:28 22.3 °C 15.4 °C 1016.8 hPa Calm     65 % 0.0 mm 0.0 W/m2 CLR
22:33 22.3 °C 15.4 °C 1016.8 hPa Calm     65 % 0.0 mm 0.0 W/m2 CLR
22:38 22.2 °C 15.5 °C 1016.8 hPa Calm     66 % 0.0 mm 0.0 W/m2 CLR
22:43 22.1 °C 15.7 °C 1016.8 hPa Calm     67 % 0.0 mm 0.0 W/m2 CLR
22:48 22.0 °C 15.6 °C 1016.8 hPa Calm     67 % 0.0 mm 0.0 W/m2 CLR
22:53 21.9 °C 15.6 °C 1016.8 hPa Calm     67 % 0.0 mm 0.0 W/m2 CLR
22:58 21.9 °C 15.3 °C 1016.8 hPa WSW 5.6 km/h 5.6 km/h 66 % 0.0 mm 0.0 W/m2 CLR
23:03 21.9 °C 15.1 °C 1016.8 hPa Calm     65 % 0.0 mm 0.0 W/m2 CLR
23:08 21.9 °C 15.1 °C 1016.8 hPa Calm     65 % 0.0 mm 0.0 W/m2 CLR
23:13 21.9 °C 15.0 °C 1016.8 hPa Calm     65 % 0.0 mm 0.0 W/m2 CLR
23:18 21.8 °C 15.2 °C 1016.8 hPa Calm     66 % 0.0 mm 0.0 W/m2 CLR
23:23 21.6 °C 15.2 °C 1016.8 hPa Calm     67 % 0.0 mm 0.0 W/m2 CLR
23:28 21.4 °C 15.2 °C 1017.2 hPa Calm     68 % 0.0 mm 0.0 W/m2 CLR
23:33 21.3 °C 15.2 °C 1017.2 hPa Calm     68 % 0.0 mm 0.0 W/m2 CLR
23:38 21.4 °C 15.0 °C 1017.2 hPa Calm     67 % 0.0 mm 0.0 W/m2 CLR
23:43 21.3 °C 15.2 °C 1016.8 hPa Calm     68 % 0.0 mm 0.0 W/m2 CLR
23:44 21.3 °C 15.1 °C 1016.8 hPa Calm     68 % 0.0 mm 0.0 W/m2 CLR
23:49 21.2 °C 15.0 °C 1016.8 hPa Calm     68 % 0.0 mm 0.0 W/m2 CLR
23:54 21.1 °C 14.7 °C 1016.8 hPa SE 5.6 km/h 5.6 km/h 67 % 0.0 mm 0.0 W/m2 CLR
23:59 21.0 °C 14.6 °C 1016.8 hPa Calm     67 % 0.0 mm 0.0 W/m2 CLR
Lo Temps de Massalio
Compliments of Weather Underground - 1.25 mb